Regional Weather Roundup
Issued by NWS Charleston, SC

Current Version | Previous Version | Text Only | Print | Product List | Glossary Off
Versions: 1 2 3 4 5 6 7 8 9 10 11 12 13 14 15 16 17 18 19 20 21 22 23 24 25 26 27 28 29 30 31 32 33 34 35 36 37 38 39 40 41 42 43 44 45 46 47 48 49 50
000 ASUS42 KCHS 222327 RWRCHS REGIONAL WEATHER ROUNDUP NATIONAL WEATHER SERVICE CHARLESTON SC 700 PM EDT TUE AUG 22 2017 NOTE: "FAIR" INDICATES FEW OR NO CLOUDS BELOW 12,000 FEET WITH NO SIGNIFICANT WEATHER AND/OR OBSTRUCTIONS TO VISIBILITY. NOT ALL STATIONS ARE QUALITY CONTROLLED. USE DATA WITH CAUTION... ESPECIALLY DEWPOINT OBSERVATIONS. SCZ027-030-031-034>040-042>050-230000- ...SOUTHEAST SOUTH CAROLINA... CITY SKY/WX TMP DP RH WIND PRES REMARKS N CHARLESTON MOSUNNY 84 74 71 S10 30.00F HX 91 WATERFRONT PRK N/A 85 76 74 SW7 29.85F HX 95 JOHNS ISLAND FAIR 84 75 74 S7G13 30.00F HX 92 PINOPOLIS N/A 84 77 79 VRB3 29.92F HX 94 MONCKS CORNER FAIR 82 75 78 S8 29.99F SUMMERVILLE FAIR 82 77 83 SE3 30.00F HX 91 BEAUFORT MCAS CLOUDY 84 78 82 S7 30.01F HX 95 BEAUFORT ARPT FAIR 82 73 74 S6 30.00F HILTON HEAD IS MOSUNNY 82 75 78 S9 30.02F WALTERBORO CLEAR 82 77 83 S10 30.00F HX 91 ALLENDALE NOT AVBL ...SOUTHERN MIDLANDS AND PEE DEE... CITY SKY/WX TMP DP RH WIND PRES REMARKS GEORGETOWN FAIR 81 77 89 SW7 30.01S KINGSTREE FAIR 82 75 78 S5 29.99S ORANGEBURG MOSUNNY 88 72 58 S8 29.99S HX 94 BARNWELL FAIR 90 75 62 SE6 29.98F HX 100 AIKEN FAIR 84 70 61 S6 30.02F MANNING FAIR 84 64 51 S14 29.98F COLUMBIA MOSUNNY 91 71 51 S7 29.95F HX 97 SUMTER SUNNY 89 71 55 S9 29.95F HX 95 FLORENCE CLOUDY 85 74 69 S10 29.98F HX 92 MYRTLE BEACH SUNNY 84 75 74 S10 30.00F HX 92 N MYRTLE BEACH CLOUDY 84 74 71 S15 29.98F HX 91 $$ GAZ063-065-086>088-099>101-113>116-118-119-134>141-150-230000- ...SOUTHEAST GEORGIA... CITY SKY/WX TMP DP RH WIND PRES REMARKS SAVANNAH ARPT CLOUDY 82 75 79 SE5 30.02F HUNTER AAF CLOUDY 83 75 77 S5 29.98F HX 90 FORT STEWART CLOUDY 80 74 80 S3 29.99F STATESBORO CLOUDY 87 70 57 S9 30.00F HX 92 SYLVANIA CLOUDY 85 78 78 S3 30.01S HX 97 CLAXTON FAIR 86 77 76 CALM 30.00F HX 97 ...CSRA...CENTRAL AND FAR SOUTHEAST GEORGIA... CITY SKY/WX TMP DP RH WIND PRES REMARKS THOMSON CLOUDY 80 76 89 W3 30.05S AUGUSTA-BUSH LGT RAIN 86 74 67 W9 29.98S HX 94 AUGUSTA-DANIEL PTSUNNY 86 70 58 SW7 30.00S HX 90 SWAINSBORO FAIR 88 72 58 CALM 30.01F HX 94 VIDALIA CLOUDY 88 73 62 CALM 30.00F HX 96 EASTMAN FAIR 85 67 55 CALM 30.04F HAZLEHURST FAIR 84 69 60 W3 30.00S ALMA PTSUNNY 87 76 69 SE7 30.00F HX 97 WAYCROSS TSTM 82 75 77 S8 30.01S JESUP FAIR 82 75 78 SE3 30.01F BAXLEY FAIR 82 79 89 SE5 30.00S HX 93 BRUNSWICK DRIZZLE 77 73 88 CALM 30.02F SAINT SIMONS LGT RAIN 81 78 91 VRB3 30.01F $$ SCZ027-028-034-036>038-045-046-048>050-GAZ119-141-230000- ...LAKE AND SUPPLEMENTAL COASTAL OBSERVATIONS... STATION/POSITION TIME TEMP WIND PRES WAVE SWELL AIR SEA DIR/SP/G HT/PER HT/PER/DIR (UTC) (F) (DEG/KT/KT) (MB) (FT/S) (FT/S/D) WINYAH BAY 2245 85 210/ 9 1016.0S LAKE MURRAY 2230 90 190/ 9/ 10 1013.5S ACE BASIN NERRS 2245 83 180/ 1 1016.0F FORT PULASKI 2300 83 87 200/ 4/ 7 1016.5 SAPELO ISLAND 2300 83 210/ 5 1016.0 $$ ANZ835-935-AMZ111-154-330-350-352-354-370-450-454-472-230000- ...C-MAN AND BUOY OBSERVATIONS... STATION/POSITION TIME TEMP WIND PRES WAVE SWELL AIR SEA DIR/SP/G HT/PER HT/PER/DIR (UTC) (F) (DEG/KT/KT) (MB) (FT/S) (FT/S/D) BUOY 41004 2310 83 85 200/ 12/ 14 1015.5 BUOY 41008 2250 84 86 170/ 10/ 12 1016.1F 4/ 9 3/110/ 9 FOLLY BEACH CMAN 2300 83 210/ 14/ 16 1016.5F CAPERS NEARSHORE 2308 82 86 220/ 14/ 19 1015.8F FRIPP NEARSHORE 2308 84 210/ 14/ 17 1015.4F STATION/POSITION TIME TEMP WIND PRES WAVE SWELL AIR SEA DIR/SP/G HT/PER HT/PER/DIR (UTC) (F) (DEG/KT/KT) (MB) (FT/S) (FT/S/D) 5E ST. MARYS GA 2300 85 N/A 4/10 2/120/11 FRYING PAN BUOY 2310 84 85 210/ 10/ 14 1015.6 BUOY 41025 2250 84 86 200/ 16/ 17 1015.1F 4/10 3/130/10 CAPE LOOKOUT NC 2300 83 190/ 12/ 16 1015.1F BUOY 41002 2250 83 85 140/ 6/ 8 1017.3F 4/ 9 5/110/ 9 BUOY 41010 2310 83 85 80/ 12/ 16 1016.0 ST AUGUSTINE FL 2300 83 85 120/ 9/ 10 1017.0F $$

USA.gov is the U.S. government's official web portal to all federal, state and local government web resources and services.